Terminal Aerodrome Forecast
Issued by NWS Boston, MA

Home | Current Version | Previous Version | Text Only | Print | Product List | Glossary On
Versions: 1 2 3 4 5 6 7 8 9 10 11 12 13 14 15 16 17 18 19 20 21 22 23 24 25 26 27 28 29 30 31 32 33 34 35 36 37 38 39 40 41 42 43 44 45 46 47 48 49 50
000
FTUS41 KBOX 251506 AAA
TAFBOS
TAF AMD
KBOS 251506Z 2515/2618 25015G25KT P6SM SCT050
     FM251800 29019G27KT P6SM SCT250
     FM252300 29011G24KT P6SM FEW250
     FM260600 32008KT P6SM FEW200
     FM261200 36007KT P6SM BKN050
     FM261500 05008KT P6SM BKN020=

USA.gov is the U.S. government's official web portal to all federal, state and local government web resources and services.